owner,sensor,date,latitude,longitude,vertical_datum,sea_water_practical_salinity,qcFlag 
TCOON,ioos:station:TCOON:042:1,2011-09-01T00:00:00Z,27.8888,-97.5696,0.0,55.8,1111122 
TCOON,ioos:station:TCOON:042:1,2011-09-01T00:30:00Z,27.8888,-97.5696,0.0,55.5,1111122 
TCOON,ioos:station:TCOON:042:1,2011-09-01T01:00:00Z,27.8888,-97.5696,0.0,54.9,1111122 
TCOON,ioos:station:TCOON:042:1,2011-09-01T01:30:00Z,27.8888,-97.5696,0.0,54.6,1111122 
TCOON,ioos:station:TCOON:042:1,2011-09-01T02:00:00Z,27.8888,-97.5696,0.0,54.3,1111122 
TCOON,ioos:station:TCOON:042:1,2011-09-01T02:30:00Z,27.8888,-97.5696,0.0,54.0,1111122 
TCOON,ioos:station:TCOON:042:1,2011-09-01T03:00:00Z,27.8888,-97.5696,0.0,53.9,1111122 
TCOON,ioos:station:TCOON:042:1,2011-09-01T03:30:00Z,27.8888,-97.5696,0.0,53.6,1111122 
TCOON,ioos:station:TCOON:042:1,2011-09-01T04:00:00Z,27.8888,-97.5696,0.0,53.4,1111122 
TCOON,ioos:station:TCOON:042:1,2011-09-01T05:00:00Z,27.8888,-97.5696,0.0,52.8,1111122 
TCOON,ioos:station:TCOON:042:1,2011-09-01T05:30:00Z,27.8888,-97.5696,0.0,52.7,1111122 
TCOON,ioos:station:TCOON:042:1,2011-09-01T06:00:00Z,27.8888,-97.5696,0.0,52.5,1111122 
TCOON,ioos:station:TCOON:042:1,2011-09-01T06:30:00Z,27.8888,-97.5696,0.0,52.4,1111122 
TCOON,ioos:station:TCOON:042:1,2011-09-01T07:30:00Z,27.8888,-97.5696,0.0,52.2,1111122 
TCOON,ioos:station:TCOON:042:1,2011-09-01T08:00:00Z,27.8888,-97.5696,0.0,52.2,1111122 
TCOON,ioos:station:TCOON:042:1,2011-09-01T08:30:00Z,27.8888,-97.5696,0.0,52.2,1111122 
TCOON,ioos:station:TCOON:042:1,2011-09-01T09:00:00Z,27.8888,-97.5696,0.0,52.2,1111122 
TCOON,ioos:station:TCOON:042:1,2011-09-01T09:30:00Z,27.8888,-97.5696,0.0,52.2,1111122 
TCOON,ioos:station:TCOON:042:1,2011-09-01T10:00:00Z,27.8888,-97.5696,0.0,52.2,1111122 
TCOON,ioos:station:TCOON:042:1,2011-09-01T10:30:00Z,27.8888,-97.5696,0.0,52.2,1111122 
TCOON,ioos:station:TCOON:042:1,2011-09-01T11:00:00Z,27.8888,-97.5696,0.0,52.1,1111122 
TCOON,ioos:station:TCOON:042:1,2011-09-01T11:30:00Z,27.8888,-97.5696,0.0,52.2,1111122 
TCOON,ioos:station:TCOON:042:1,2011-09-01T12:00:00Z,27.8888,-97.5696,0.0,52.2,1111122 
TCOON,ioos:station:TCOON:042:1,2011-09-01T12:30:00Z,27.8888,-97.5696,0.0,52.1,1111122 
TCOON,ioos:station:TCOON:042:1,2011-09-01T13:00:00Z,27.8888,-97.5696,0.0,52.1,1111122 
TCOON,ioos:station:TCOON:042:1,2011-09-01T13:30:00Z,27.8888,-97.5696,0.0,52.1,1111122 
TCOON,ioos:station:TCOON:042:1,2011-09-01T14:00:00Z,27.8888,-97.5696,0.0,52.1,1111122 
TCOON,ioos:station:TCOON:042:1,2011-09-01T14:30:00Z,27.8888,-97.5696,0.0,52.1,1111122 
TCOON,ioos:station:TCOON:042:1,2011-09-01T15:00:00Z,27.8888,-97.5696,0.0,52.2,1111122 
TCOON,ioos:station:TCOON:042:1,2011-09-01T15:30:00Z,27.8888,-97.5696,0.0,52.1,1111122 
TCOON,ioos:station:TCOON:042:1,2011-09-01T17:00:00Z,27.8888,-97.5696,0.0,52.2,1111122 
TCOON,ioos:station:TCOON:042:1,2011-09-01T17:30:00Z,27.8888,-97.5696,0.0,52.3,1111122 
TCOON,ioos:station:TCOON:042:1,2011-09-01T18:00:00Z,27.8888,-97.5696,0.0,52.2,1111122 
TCOON,ioos:station:TCOON:042:1,2011-09-01T18:30:00Z,27.8888,-97.5696,0.0,52.3,1111122 
TCOON,ioos:station:TCOON:042:1,2011-09-01T19:00:00Z,27.8888,-97.5696,0.0,52.2,1111122 
TCOON,ioos:station:TCOON:042:1,2011-09-01T19:30:00Z,27.8888,-97.5696,0.0,52.3,1111122 
TCOON,ioos:station:TCOON:042:1,2011-09-01T20:30:00Z,27.8888,-97.5696,0.0,52.1,1111122 
TCOON,ioos:station:TCOON:042:1,2011-09-01T21:00:00Z,27.8888,-97.5696,0.0,52.1,1111122 
TCOON,ioos:station:TCOON:042:1,2011-09-01T21:30:00Z,27.8888,-97.5696,0.0,52.1,1111122 
TCOON,ioos:station:TCOON:042:1,2011-09-01T22:00:00Z,27.8888,-97.5696,0.0,52.1,1111122 
TCOON,ioos:station:TCOON:042:1,2011-09-01T22:30:00Z,27.8888,-97.5696,0.0,52.2,1111122 
TCOON,ioos:station:TCOON:042:1,2011-09-01T23:00:00Z,27.8888,-97.5696,0.0,52.2,1111122 
TCOON,ioos:station:TCOON:042:1,2011-09-02T00:00:00Z,27.8888,-97.5696,0.0,52.2,1111122 
TCOON,ioos:station:TCOON:042:1,2011-09-02T01:00:00Z,27.8888,-97.5696,0.0,52.3,1111122 
TCOON,ioos:station:TCOON:042:1,2011-09-02T01:30:00Z,27.8888,-97.5696,0.0,52.4,1111122 
TCOON,ioos:station:TCOON:042:1,2011-09-02T02:00:00Z,27.8888,-97.5696,0.0,52.4,1111122 
TCOON,ioos:station:TCOON:042:1,2011-09-02T02:30:00Z,27.8888,-97.5696,0.0,52.4,1111122 
TCOON,ioos:station:TCOON:042:1,2011-09-02T03:00:00Z,27.8888,-97.5696,0.0,52.4,1111122 
TCOON,ioos:station:TCOON:042:1,2011-09-02T03:30:00Z,27.8888,-97.5696,0.0,52.5,1111122 
TCOON,ioos:station:TCOON:042:1,2011-09-02T04:00:00Z,27.8888,-97.5696,0.0,52.7,1111122 
TCOON,ioos:station:TCOON:042:1,2011-09-02T04:30:00Z,27.8888,-97.5696,0.0,53.2,1111122 
TCOON,ioos:station:TCOON:042:1,2011-09-02T05:00:00Z,27.8888,-97.5696,0.0,54.0,1111122 
TCOON,ioos:station:TCOON:042:1,2011-09-02T05:30:00Z,27.8888,-97.5696,0.0,55.2,1111122 
TCOON,ioos:station:TCOON:042:1,2011-09-02T06:00:00Z,27.8888,-97.5696,0.0,56.3,1111122 
TCOON,ioos:station:TCOON:042:1,2011-09-02T06:30:00Z,27.8888,-97.5696,0.0,57.3,1111122 
TCOON,ioos:station:TCOON:042:1,2011-09-02T07:00:00Z,27.8888,-97.5696,0.0,58.1,1111122 
TCOON,ioos:station:TCOON:042:1,2011-09-02T07:30:00Z,27.8888,-97.5696,0.0,58.9,1111122 
TCOON,ioos:station:TCOON:042:1,2011-09-02T08:00:00Z,27.8888,-97.5696,0.0,59.5,1111122 
TCOON,ioos:station:TCOON:042:1,2011-09-02T08:30:00Z,27.8888,-97.5696,0.0,60.1,1111122 
TCOON,ioos:station:TCOON:042:1,2011-09-02T09:00:00Z,27.8888,-97.5696,0.0,60.5,1111122 
TCOON,ioos:station:TCOON:042:1,2011-09-02T10:30:00Z,27.8888,-97.5696,0.0,59.8,1111122 
TCOON,ioos:station:TCOON:042:1,2011-09-02T11:30:00Z,27.8888,-97.5696,0.0,59.0,1111122 
TCOON,ioos:station:TCOON:042:1,2011-09-02T12:30:00Z,27.8888,-97.5696,0.0,58.4,1111122 
TCOON,ioos:station:TCOON:042:1,2011-09-02T13:00:00Z,27.8888,-97.5696,0.0,58.2,1111122 
TCOON,ioos:station:TCOON:042:1,2011-09-02T14:30:00Z,27.8888,-97.5696,0.0,57.8,1111122 
TCOON,ioos:station:TCOON:042:1,2011-09-02T15:00:00Z,27.8888,-97.5696,0.0,57.7,1111122 
TCOON,ioos:station:TCOON:042:1,2011-09-02T15:30:00Z,27.8888,-97.5696,0.0,57.6,1111122 
TCOON,ioos:station:TCOON:042:1,2011-09-02T16:00:00Z,27.8888,-97.5696,0.0,57.5,1111122 
TCOON,ioos:station:TCOON:042:1,2011-09-02T16:30:00Z,27.8888,-97.5696,0.0,57.4,1111122 
TCOON,ioos:station:TCOON:042:1,2011-09-02T17:30:00Z,27.8888,-97.5696,0.0,57.2,1111122 
TCOON,ioos:station:TCOON:042:1,2011-09-02T18:30:00Z,27.8888,-97.5696,0.0,57.2,1111122 
TCOON,ioos:station:TCOON:042:1,2011-09-02T19:00:00Z,27.8888,-97.5696,0.0,57.1,1111122 
TCOON,ioos:station:TCOON:042:1,2011-09-02T19:30:00Z,27.8888,-97.5696,0.0,57.1,1111122 
TCOON,ioos:station:TCOON:042:1,2011-09-02T20:00:00Z,27.8888,-97.5696,0.0,57.1,1111122 
TCOON,ioos:station:TCOON:042:1,2011-09-02T20:30:00Z,27.8888,-97.5696,0.0,57.0,1111122 
TCOON,ioos:station:TCOON:042:1,2011-09-02T21:00:00Z,27.8888,-97.5696,0.0,57.0,1111122 
TCOON,ioos:station:TCOON:042:1,2011-09-02T21:30:00Z,27.8888,-97.5696,0.0,56.9,1111122 
TCOON,ioos:station:TCOON:042:1,2011-09-02T22:00:00Z,27.8888,-97.5696,0.0,56.9,1111122 
TCOON,ioos:station:TCOON:042:1,2011-09-02T22:30:00Z,27.8888,-97.5696,0.0,56.8,1111122 
TCOON,ioos:station:TCOON:042:1,2011-09-02T23:30:00Z,27.8888,-97.5696,0.0,56.7,1111122 
TCOON,ioos:station:TCOON:042:1,2011-09-03T00:00:00Z,27.8888,-97.5696,0.0,56.6,1111122 
TCOON,ioos:station:TCOON:042:1,2011-09-03T00:30:00Z,27.8888,-97.5696,0.0,56.5,1111122 
TCOON,ioos:station:TCOON:042:1,2011-09-03T01:00:00Z,27.8888,-97.5696,0.0,56.5,1111122 
TCOON,ioos:station:TCOON:042:1,2011-09-03T01:30:00Z,27.8888,-97.5696,0.0,56.4,1111122 
TCOON,ioos:station:TCOON:042:1,2011-09-03T02:00:00Z,27.8888,-97.5696,0.0,56.4,1111122 
TCOON,ioos:station:TCOON:042:1,2011-09-03T02:30:00Z,27.8888,-97.5696,0.0,56.3,1111122 
TCOON,ioos:station:TCOON:042:1,2011-09-03T03:30:00Z,27.8888,-97.5696,0.0,56.2,1111122 
TCOON,ioos:station:TCOON:042:1,2011-09-03T04:00:00Z,27.8888,-97.5696,0.0,56.1,1111122 
TCOON,ioos:station:TCOON:042:1,2011-09-03T04:30:00Z,27.8888,-97.5696,0.0,56.0,1111122 
TCOON,ioos:station:TCOON:042:1,2011-09-03T05:00:00Z,27.8888,-97.5696,0.0,55.9,1111122 
TCOON,ioos:station:TCOON:042:1,2011-09-03T05:30:00Z,27.8888,-97.5696,0.0,55.6,1111122 
TCOON,ioos:station:TCOON:042:1,2011-09-03T06:00:00Z,27.8888,-97.5696,0.0,55.0,1111122 
TCOON,ioos:station:TCOON:042:1,2011-09-03T06:30:00Z,27.8888,-97.5696,0.0,54.4,1111122 
TCOON,ioos:station:TCOON:042:1,2011-09-03T07:00:00Z,27.8888,-97.5696,0.0,53.8,1111122 
TCOON,ioos:station:TCOON:042:1,2011-09-03T07:30:00Z,27.8888,-97.5696,0.0,53.1,1111122 
TCOON,ioos:station:TCOON:042:1,2011-09-03T08:00:00Z,27.8888,-97.5696,0.0,52.5,1111122 
TCOON,ioos:station:TCOON:042:1,2011-09-03T08:30:00Z,27.8888,-97.5696,0.0,52.0,1111122 
TCOON,ioos:station:TCOON:042:1,2011-09-03T09:00:00Z,27.8888,-97.5696,0.0,51.5,1111122 
TCOON,ioos:station:TCOON:042:1,2011-09-03T09:30:00Z,27.8888,-97.5696,0.0,51.1,1111122 
TCOON,ioos:station:TCOON:042:1,2011-09-03T10:00:00Z,27.8888,-97.5696,0.0,50.9,1111122 
TCOON,ioos:station:TCOON:042:1,2011-09-03T10:30:00Z,27.8888,-97.5696,0.0,50.6,1111122 
TCOON,ioos:station:TCOON:042:1,2011-09-03T11:00:00Z,27.8888,-97.5696,0.0,50.4,1111122 
TCOON,ioos:station:TCOON:042:1,2011-09-03T11:30:00Z,27.8888,-97.5696,0.0,50.1,1111122 
TCOON,ioos:station:TCOON:042:1,2011-09-03T12:30:00Z,27.8888,-97.5696,0.0,49.9,1111122 
TCOON,ioos:station:TCOON:042:1,2011-09-03T13:00:00Z,27.8888,-97.5696,0.0,49.9,1111122 
TCOON,ioos:station:TCOON:042:1,2011-09-03T13:30:00Z,27.8888,-97.5696,0.0,49.8,1111122 
TCOON,ioos:station:TCOON:042:1,2011-09-03T14:00:00Z,27.8888,-97.5696,0.0,49.8,1111122 
TCOON,ioos:station:TCOON:042:1,2011-09-03T14:30:00Z,27.8888,-97.5696,0.0,49.8,1111122 
TCOON,ioos:station:TCOON:042:1,2011-09-03T15:00:00Z,27.8888,-97.5696,0.0,49.7,1111122 
TCOON,ioos:station:TCOON:042:1,2011-09-03T15:30:00Z,27.8888,-97.5696,0.0,49.7,1111122 
TCOON,ioos:station:TCOON:042:1,2011-09-03T17:00:00Z,27.8888,-97.5696,0.0,49.6,1111122 
TCOON,ioos:station:TCOON:042:1,2011-09-03T17:30:00Z,27.8888,-97.5696,0.0,49.6,1111122 
TCOON,ioos:station:TCOON:042:1,2011-09-03T18:30:00Z,27.8888,-97.5696,0.0,49.6,1111122 
TCOON,ioos:station:TCOON:042:1,2011-09-03T19:00:00Z,27.8888,-97.5696,0.0,49.6,1111122 
TCOON,ioos:station:TCOON:042:1,2011-09-03T19:30:00Z,27.8888,-97.5696,0.0,49.6,1111122 
TCOON,ioos:station:TCOON:042:1,2011-09-03T20:00:00Z,27.8888,-97.5696,0.0,49.6,1111122 
TCOON,ioos:station:TCOON:042:1,2011-09-03T21:00:00Z,27.8888,-97.5696,0.0,49.7,1111122 
TCOON,ioos:station:TCOON:042:1,2011-09-03T21:30:00Z,27.8888,-97.5696,0.0,49.6,1111122 
TCOON,ioos:station:TCOON:042:1,2011-09-03T23:00:00Z,27.8888,-97.5696,0.0,49.6,1111122 
TCOON,ioos:station:TCOON:042:1,2011-09-04T00:30:00Z,27.8888,-97.5696,0.0,49.8,1111122 
TCOON,ioos:station:TCOON:042:1,2011-09-04T03:00:00Z,27.8888,-97.5696,0.0,49.8,1111122 
TCOON,ioos:station:TCOON:042:1,2011-09-04T03:30:00Z,27.8888,-97.5696,0.0,49.8,1111122 
TCOON,ioos:station:TCOON:042:1,2011-09-04T04:00:00Z,27.8888,-97.5696,0.0,49.9,1111122 
TCOON,ioos:station:TCOON:042:1,2011-09-04T04:30:00Z,27.8888,-97.5696,0.0,50.0,1111122 
TCOON,ioos:station:TCOON:042:1,2011-09-04T05:00:00Z,27.8888,-97.5696,0.0,50.0,1111122 
TCOON,ioos:station:TCOON:042:1,2011-09-04T05:30:00Z,27.8888,-97.5696,0.0,50.1,1111122 
TCOON,ioos:station:TCOON:042:1,2011-09-04T06:00:00Z,27.8888,-97.5696,0.0,50.2,1111122 
TCOON,ioos:station:TCOON:042:1,2011-09-04T06:30:00Z,27.8888,-97.5696,0.0,50.3,1111122 
TCOON,ioos:station:TCOON:042:1,2011-09-04T07:00:00Z,27.8888,-97.5696,0.0,50.4,1111122 
TCOON,ioos:station:TCOON:042:1,2011-09-04T07:30:00Z,27.8888,-97.5696,0.0,50.6,1111122 
TCOON,ioos:station:TCOON:042:1,2011-09-04T08:00:00Z,27.8888,-97.5696,0.0,50.7,1111122 
TCOON,ioos:station:TCOON:042:1,2011-09-04T08:30:00Z,27.8888,-97.5696,0.0,50.7,1111122 
TCOON,ioos:station:TCOON:042:1,2011-09-04T09:00:00Z,27.8888,-97.5696,0.0,50.8,1111122 
TCOON,ioos:station:TCOON:042:1,2011-09-04T10:00:00Z,27.8888,-97.5696,0.0,50.9,1111122 
TCOON,ioos:station:TCOON:042:1,2011-09-04T13:00:00Z,27.8888,-97.5696,0.0,51.1,1111122 
TCOON,ioos:station:TCOON:042:1,2011-09-04T13:30:00Z,27.8888,-97.5696,0.0,51.1,1111122 
TCOON,ioos:station:TCOON:042:1,2011-09-04T14:00:00Z,27.8888,-97.5696,0.0,51.1,1111122 
TCOON,ioos:station:TCOON:042:1,2011-09-04T14:30:00Z,27.8888,-97.5696,0.0,51.2,1111122 
TCOON,ioos:station:TCOON:042:1,2011-09-04T15:00:00Z,27.8888,-97.5696,0.0,51.2,1111122 
TCOON,ioos:station:TCOON:042:1,2011-09-04T15:30:00Z,27.8888,-97.5696,0.0,51.2,1111122 
TCOON,ioos:station:TCOON:042:1,2011-09-04T17:00:00Z,27.8888,-97.5696,0.0,51.4,1111122 
TCOON,ioos:station:TCOON:042:1,2011-09-04T17:30:00Z,27.8888,-97.5696,0.0,51.5,1111122 
TCOON,ioos:station:TCOON:042:1,2011-09-04T18:00:00Z,27.8888,-97.5696,0.0,51.6,1111122 
TCOON,ioos:station:TCOON:042:1,2011-09-04T18:30:00Z,27.8888,-97.5696,0.0,51.9,1111122 
TCOON,ioos:station:TCOON:042:1,2011-09-04T19:30:00Z,27.8888,-97.5696,0.0,52.9,1111122 
TCOON,ioos:station:TCOON:042:1,2011-09-04T20:00:00Z,27.8888,-97.5696,0.0,53.4,1111122 
TCOON,ioos:station:TCOON:042:1,2011-09-04T23:00:00Z,27.8888,-97.5696,0.0,56.3,1111122 
TCOON,ioos:station:TCOON:042:1,2011-09-05T00:30:00Z,27.8888,-97.5696,0.0,57.2,1111122 
TCOON,ioos:station:TCOON:042:1,2011-09-05T01:30:00Z,27.8888,-97.5696,0.0,57.7,1111122 
TCOON,ioos:station:TCOON:042:1,2011-09-05T02:30:00Z,27.8888,-97.5696,0.0,58.0,1111122 
TCOON,ioos:station:TCOON:042:1,2011-09-05T03:30:00Z,27.8888,-97.5696,0.0,58.3,1111122 
TCOON,ioos:station:TCOON:042:1,2011-09-05T04:00:00Z,27.8888,-97.5696,0.0,58.4,1111122 
TCOON,ioos:station:TCOON:042:1,2011-09-05T04:30:00Z,27.8888,-97.5696,0.0,58.5,1111122 
TCOON,ioos:station:TCOON:042:1,2011-09-05T05:00:00Z,27.8888,-97.5696,0.0,58.6,1111122 
TCOON,ioos:station:TCOON:042:1,2011-09-05T05:30:00Z,27.8888,-97.5696,0.0,58.7,1111122 
TCOON,ioos:station:TCOON:042:1,2011-09-05T07:00:00Z,27.8888,-97.5696,0.0,58.9,1111122 
TCOON,ioos:station:TCOON:042:1,2011-09-05T07:30:00Z,27.8888,-97.5696,0.0,59.0,1111122 
TCOON,ioos:station:TCOON:042:1,2011-09-05T08:00:00Z,27.8888,-97.5696,0.0,59.1,1111122 
TCOON,ioos:station:TCOON:042:1,2011-09-05T08:30:00Z,27.8888,-97.5696,0.0,59.2,1111122 
TCOON,ioos:station:TCOON:042:1,2011-09-05T09:00:00Z,27.8888,-97.5696,0.0,59.2,1111122 
TCOON,ioos:station:TCOON:042:1,2011-09-05T09:30:00Z,27.8888,-97.5696,0.0,59.3,1111122 
TCOON,ioos:station:TCOON:042:1,2011-09-05T10:00:00Z,27.8888,-97.5696,0.0,59.4,1111122 
TCOON,ioos:station:TCOON:042:1,2011-09-05T11:30:00Z,27.8888,-97.5696,0.0,59.5,1111122 
TCOON,ioos:station:TCOON:042:1,2011-09-05T12:00:00Z,27.8888,-97.5696,0.0,59.5,1111122 
TCOON,ioos:station:TCOON:042:1,2011-09-05T12:30:00Z,27.8888,-97.5696,0.0,59.5,1111122 
TCOON,ioos:station:TCOON:042:1,2011-09-05T13:30:00Z,27.8888,-97.5696,0.0,59.6,1111122 
TCOON,ioos:station:TCOON:042:1,2011-09-05T15:30:00Z,27.8888,-97.5696,0.0,59.9,1111122 
TCOON,ioos:station:TCOON:042:1,2011-09-05T16:30:00Z,27.8888,-97.5696,0.0,60.0,1111122 
TCOON,ioos:station:TCOON:042:1,2011-09-05T17:00:00Z,27.8888,-97.5696,0.0,60.0,1111122 
TCOON,ioos:station:TCOON:042:1,2011-09-05T17:30:00Z,27.8888,-97.5696,0.0,60.1,1111122 
TCOON,ioos:station:TCOON:042:1,2011-09-05T18:00:00Z,27.8888,-97.5696,0.0,60.2,1111122 
TCOON,ioos:station:TCOON:042:1,2011-09-05T18:30:00Z,27.8888,-97.5696,0.0,60.2,1111122 
TCOON,ioos:station:TCOON:042:1,2011-09-05T19:00:00Z,27.8888,-97.5696,0.0,60.2,1111122 
TCOON,ioos:station:TCOON:042:1,2011-09-05T19:30:00Z,27.8888,-97.5696,0.0,60.3,1111122 
TCOON,ioos:station:TCOON:042:1,2011-09-05T20:00:00Z,27.8888,-97.5696,0.0,60.4,1111122 
TCOON,ioos:station:TCOON:042:1,2011-09-05T20:30:00Z,27.8888,-97.5696,0.0,60.5,1111122 
TCOON,ioos:station:TCOON:042:1,2011-09-05T21:00:00Z,27.8888,-97.5696,0.0,60.5,1111122 
TCOON,ioos:station:TCOON:042:1,2011-09-05T21:30:00Z,27.8888,-97.5696,0.0,60.5,1111122 
TCOON,ioos:station:TCOON:042:1,2011-09-05T22:00:00Z,27.8888,-97.5696,0.0,60.6,1111122 
TCOON,ioos:station:TCOON:042:1,2011-09-05T22:30:00Z,27.8888,-97.5696,0.0,60.6,1111122 
TCOON,ioos:station:TCOON:042:1,2011-09-05T23:00:00Z,27.8888,-97.5696,0.0,60.7,1111122 
TCOON,ioos:station:TCOON:042:1,2011-09-06T01:00:00Z,27.8888,-97.5696,0.0,60.9,1111122 
TCOON,ioos:station:TCOON:042:1,2011-09-06T01:30:00Z,27.8888,-97.5696,0.0,61.1,1111122 
TCOON,ioos:station:TCOON:042:1,2011-09-06T02:30:00Z,27.8888,-97.5696,0.0,61.2,1111122 
TCOON,ioos:station:TCOON:042:1,2011-09-06T03:00:00Z,27.8888,-97.5696,0.0,61.3,1111122 
TCOON,ioos:station:TCOON:042:1,2011-09-06T04:00:00Z,27.8888,-97.5696,0.0,61.4,1111122 
TCOON,ioos:station:TCOON:042:1,2011-09-06T05:00:00Z,27.8888,-97.5696,0.0,61.5,1111122 
TCOON,ioos:station:TCOON:042:1,2011-09-06T05:30:00Z,27.8888,-97.5696,0.0,61.6,1111122 
TCOON,ioos:station:TCOON:042:1,2011-09-06T06:00:00Z,27.8888,-97.5696,0.0,61.7,1111122 
TCOON,ioos:station:TCOON:042:1,2011-09-06T06:30:00Z,27.8888,-97.5696,0.0,61.7,1111122 
TCOON,ioos:station:TCOON:042:1,2011-09-06T07:00:00Z,27.8888,-97.5696,0.0,61.8,1111122 
TCOON,ioos:station:TCOON:042:1,2011-09-06T07:30:00Z,27.8888,-97.5696,0.0,61.8,1111122 
TCOON,ioos:station:TCOON:042:1,2011-09-06T08:00:00Z,27.8888,-97.5696,0.0,61.9,1111122 
TCOON,ioos:station:TCOON:042:1,2011-09-06T08:30:00Z,27.8888,-97.5696,0.0,62.0,1111122 
TCOON,ioos:station:TCOON:042:1,2011-09-06T09:30:00Z,27.8888,-97.5696,0.0,62.0,1111122 
TCOON,ioos:station:TCOON:042:1,2011-09-06T11:00:00Z,27.8888,-97.5696,0.0,62.2,1111122 
TCOON,ioos:station:TCOON:042:1,2011-09-06T11:30:00Z,27.8888,-97.5696,0.0,62.3,1111122 
TCOON,ioos:station:TCOON:042:1,2011-09-06T13:00:00Z,27.8888,-97.5696,0.0,62.4,1111122 
TCOON,ioos:station:TCOON:042:1,2011-09-06T13:30:00Z,27.8888,-97.5696,0.0,62.4,1111122 
TCOON,ioos:station:TCOON:042:1,2011-09-06T15:00:00Z,27.8888,-97.5696,0.0,62.8,1111122 
TCOON,ioos:station:TCOON:042:1,2011-09-06T16:00:00Z,27.8888,-97.5696,0.0,63.0,1111122 
TCOON,ioos:station:TCOON:042:1,2011-09-06T16:30:00Z,27.8888,-97.5696,0.0,63.1,1111122 
TCOON,ioos:station:TCOON:042:1,2011-09-06T17:30:00Z,27.8888,-97.5696,0.0,63.3,1111122 
TCOON,ioos:station:TCOON:042:1,2011-09-06T18:30:00Z,27.8888,-97.5696,0.0,63.4,1111122 
TCOON,ioos:station:TCOON:042:1,2011-09-06T19:30:00Z,27.8888,-97.5696,0.0,63.5,1111122 
TCOON,ioos:station:TCOON:042:1,2011-09-06T20:30:00Z,27.8888,-97.5696,0.0,63.5,1111122 
TCOON,ioos:station:TCOON:042:1,2011-09-06T21:00:00Z,27.8888,-97.5696,0.0,63.6,1111122 
TCOON,ioos:station:TCOON:042:1,2011-09-06T21:30:00Z,27.8888,-97.5696,0.0,63.7,1111122 
TCOON,ioos:station:TCOON:042:1,2011-09-06T22:00:00Z,27.8888,-97.5696,0.0,63.5,1111122 
TCOON,ioos:station:TCOON:042:1,2011-09-06T23:00:00Z,27.8888,-97.5696,0.0,63.4,1111122 
TCOON,ioos:station:TCOON:042:1,2011-09-06T23:30:00Z,27.8888,-97.5696,0.0,63.5,1111122 
TCOON,ioos:station:TCOON:042:1,2011-09-07T00:00:00Z,27.8888,-97.5696,0.0,63.5,1111122 
TCOON,ioos:station:TCOON:042:1,2011-09-07T00:30:00Z,27.8888,-97.5696,0.0,63.5,1111122 
TCOON,ioos:station:TCOON:042:1,2011-09-07T01:00:00Z,27.8888,-97.5696,0.0,63.5,1111122 
TCOON,ioos:station:TCOON:042:1,2011-09-07T01:30:00Z,27.8888,-97.5696,0.0,63.6,1111122 
TCOON,ioos:station:TCOON:042:1,2011-09-07T02:30:00Z,27.8888,-97.5696,0.0,63.5,1111122 
TCOON,ioos:station:TCOON:042:1,2011-09-07T03:00:00Z,27.8888,-97.5696,0.0,63.5,1111122 
TCOON,ioos:station:TCOON:042:1,2011-09-07T03:30:00Z,27.8888,-97.5696,0.0,63.6,1111122 
TCOON,ioos:station:TCOON:042:1,2011-09-07T04:30:00Z,27.8888,-97.5696,0.0,63.5,1111122 
TCOON,ioos:station:TCOON:042:1,2011-09-07T05:00:00Z,27.8888,-97.5696,0.0,63.4,1111122 
TCOON,ioos:station:TCOON:042:1,2011-09-07T05:30:00Z,27.8888,-97.5696,0.0,63.4,1111122 
TCOON,ioos:station:TCOON:042:1,2011-09-07T06:00:00Z,27.8888,-97.5696,0.0,63.4,1111122 
TCOON,ioos:station:TCOON:042:1,2011-09-07T06:30:00Z,27.8888,-97.5696,0.0,63.3,1111122 
TCOON,ioos:station:TCOON:042:1,2011-09-07T07:30:00Z,27.8888,-97.5696,0.0,63.3,1111122 
TCOON,ioos:station:TCOON:042:1,2011-09-07T08:00:00Z,27.8888,-97.5696,0.0,63.3,1111122 
TCOON,ioos:station:TCOON:042:1,2011-09-07T08:30:00Z,27.8888,-97.5696,0.0,63.4,1111122 
TCOON,ioos:station:TCOON:042:1,2011-09-07T09:00:00Z,27.8888,-97.5696,0.0,63.4,1111122 
TCOON,ioos:station:TCOON:042:1,2011-09-07T09:30:00Z,27.8888,-97.5696,0.0,63.4,1111122 
TCOON,ioos:station:TCOON:042:1,2011-09-07T10:30:00Z,27.8888,-97.5696,0.0,63.4,1111122 
TCOON,ioos:station:TCOON:042:1,2011-09-07T11:00:00Z,27.8888,-97.5696,0.0,63.4,1111122 
TCOON,ioos:station:TCOON:042:1,2011-09-07T11:30:00Z,27.8888,-97.5696,0.0,63.4,1111122 
TCOON,ioos:station:TCOON:042:1,2011-09-07T12:00:00Z,27.8888,-97.5696,0.0,63.4,1111122 
TCOON,ioos:station:TCOON:042:1,2011-09-07T13:00:00Z,27.8888,-97.5696,0.0,63.4,1111122 
TCOON,ioos:station:TCOON:042:1,2011-09-07T14:00:00Z,27.8888,-97.5696,0.0,63.5,1111122 
TCOON,ioos:station:TCOON:042:1,2011-09-07T14:30:00Z,27.8888,-97.5696,0.0,63.6,1111122 
TCOON,ioos:station:TCOON:042:1,2011-09-07T15:30:00Z,27.8888,-97.5696,0.0,63.6,1111122 
TCOON,ioos:station:TCOON:042:1,2011-09-07T16:00:00Z,27.8888,-97.5696,0.0,64.0,1111122 
TCOON,ioos:station:TCOON:042:1,2011-09-07T17:00:00Z,27.8888,-97.5696,0.0,64.3,1111122 
TCOON,ioos:station:TCOON:042:1,2011-09-07T17:30:00Z,27.8888,-97.5696,0.0,64.2,1111122 
TCOON,ioos:station:TCOON:042:1,2011-09-07T18:30:00Z,27.8888,-97.5696,0.0,64.0,1111122 
TCOON,ioos:station:TCOON:042:1,2011-09-07T19:00:00Z,27.8888,-97.5696,0.0,64.0,1111122 
TCOON,ioos:station:TCOON:042:1,2011-09-07T20:00:00Z,27.8888,-97.5696,0.0,64.0,1111122 
TCOON,ioos:station:TCOON:042:1,2011-09-07T20:30:00Z,27.8888,-97.5696,0.0,64.0,1111122 
TCOON,ioos:station:TCOON:042:1,2011-09-07T21:00:00Z,27.8888,-97.5696,0.0,63.9,1111122 
TCOON,ioos:station:TCOON:042:1,2011-09-07T21:30:00Z,27.8888,-97.5696,0.0,63.9,1111122 
TCOON,ioos:station:TCOON:042:1,2011-09-07T22:00:00Z,27.8888,-97.5696,0.0,63.9,1111122 
TCOON,ioos:station:TCOON:042:1,2011-09-07T23:00:00Z,27.8888,-97.5696,0.0,63.8,1111122 
TCOON,ioos:station:TCOON:042:1,2011-09-07T23:30:00Z,27.8888,-97.5696,0.0,63.8,1111122 
TCOON,ioos:station:TCOON:042:1,2011-09-08T00:00:00Z,27.8888,-97.5696,0.0,63.8,1111122 
TCOON,ioos:station:TCOON:042:1,2011-09-08T00:30:00Z,27.8888,-97.5696,0.0,63.8,1111122 
TCOON,ioos:station:TCOON:042:1,2011-09-08T01:30:00Z,27.8888,-97.5696,0.0,63.7,1111122 
TCOON,ioos:station:TCOON:042:1,2011-09-08T02:00:00Z,27.8888,-97.5696,0.0,63.7,1111122 
TCOON,ioos:station:TCOON:042:1,2011-09-08T02:30:00Z,27.8888,-97.5696,0.0,63.7,1111122 
TCOON,ioos:station:TCOON:042:1,2011-09-08T04:00:00Z,27.8888,-97.5696,0.0,63.6,1111122 
TCOON,ioos:station:TCOON:042:1,2011-09-08T04:30:00Z,27.8888,-97.5696,0.0,63.6,1111122 
TCOON,ioos:station:TCOON:042:1,2011-09-08T05:00:00Z,27.8888,-97.5696,0.0,63.5,1111122 
TCOON,ioos:station:TCOON:042:1,2011-09-08T06:00:00Z,27.8888,-97.5696,0.0,63.5,1111122 
TCOON,ioos:station:TCOON:042:1,2011-09-08T07:30:00Z,27.8888,-97.5696,0.0,63.3,1111122 
TCOON,ioos:station:TCOON:042:1,2011-09-08T08:30:00Z,27.8888,-97.5696,0.0,63.3,1111122 
TCOON,ioos:station:TCOON:042:1,2011-09-08T09:00:00Z,27.8888,-97.5696,0.0,63.3,1111122 
TCOON,ioos:station:TCOON:042:1,2011-09-08T09:30:00Z,27.8888,-97.5696,0.0,63.3,1111122 
TCOON,ioos:station:TCOON:042:1,2011-09-08T10:00:00Z,27.8888,-97.5696,0.0,63.3,1111122 
TCOON,ioos:station:TCOON:042:1,2011-09-08T10:30:00Z,27.8888,-97.5696,0.0,63.3,1111122 
TCOON,ioos:station:TCOON:042:1,2011-09-08T11:00:00Z,27.8888,-97.5696,0.0,63.2,1111122 
TCOON,ioos:station:TCOON:042:1,2011-09-08T12:00:00Z,27.8888,-97.5696,0.0,63.2,1111122 
TCOON,ioos:station:TCOON:042:1,2011-09-08T12:30:00Z,27.8888,-97.5696,0.0,63.1,1111122 
TCOON,ioos:station:TCOON:042:1,2011-09-08T13:30:00Z,27.8888,-97.5696,0.0,63.1,1111122 
TCOON,ioos:station:TCOON:042:1,2011-09-08T14:00:00Z,27.8888,-97.5696,0.0,63.0,1111122 
TCOON,ioos:station:TCOON:042:1,2011-09-08T14:30:00Z,27.8888,-97.5696,0.0,63.1,1111122 
TCOON,ioos:station:TCOON:042:1,2011-09-08T15:00:00Z,27.8888,-97.5696,0.0,63.1,1111122 
TCOON,ioos:station:TCOON:042:1,2011-09-08T15:30:00Z,27.8888,-97.5696,0.0,63.1,1111122 
TCOON,ioos:station:TCOON:042:1,2011-09-08T16:00:00Z,27.8888,-97.5696,0.0,63.1,1111122 
TCOON,ioos:station:TCOON:042:1,2011-09-08T17:00:00Z,27.8888,-97.5696,0.0,63.2,1111122 
TCOON,ioos:station:TCOON:042:1,2011-09-08T17:30:00Z,27.8888,-97.5696,0.0,63.8,1111122 